Flag for Denmark Weather past 2 weeks in Aalborg, Denmark

Now
32 °F

Passing clouds.


Feels Like: 24 °F
Forecast: 22 / 36 °F
Wind: 10 mph from Northeast

Location: Aalborg Airport

Current Time: Dec 25, 2014 at 1:57:58 PM

Latest Report: Dec 25, 2014 at 1:20 PM


Visibility: N/A

Pressure: 30.09 "Hg

Humidity: 69%

Dew point: 23 °F

Location of AalborgLocation

Historic Weather in Aalborg — Graph

°F

Aalborg temperature yesterday

Maximum temperature yesterday: 41 °F (at 1:20 PM)
Minimum temperature yesterday: 34 °F (at 5:50 AM)
Average temperature yesterday: 37 °F

Past Weeks' High & Low Weather Summary

 TemperatureHumidityPressure
High48 °F (Dec 18, 11:20 AM)100% (Dec 11, 2:20 PM)30.07 "Hg (Dec 11, 2:20 PM)
Low32 °F (Dec 25, 2:50 AM)66% (Dec 20, 4:20 PM)28.94 "Hg (Dec 12, 4:50 PM)
Average40 °F89%29.47 "Hg
* Reported Dec 10 12:20 PM — Dec 25 12:50 PM, Aalborg, Weather by CustomWeather, © 2014

Note: Actual official high and low records may vary slightly from our data, if they occured in-between our weather recording intervals... More about our weather records

Advertising

Aalborg weather history for previous 24 hours

 ConditionsComfort  
Time TempWeatherWind HumidityBarometerVisibility
12:50 PM
Dec 25
32 °FPassing clouds.9 mph69%30.07 "HgN/A
12:20 PM32 °FPassing clouds.9 mph75%30.07 "HgN/A
11:50 AM32 °FPassing clouds.9 mph75%30.04 "HgN/A
11:20 AM32 °FPassing clouds.14 mph75%30.04 "HgN/A
10:50 AM32 °FScattered clouds.10 mph75%30.01 "HgN/A
10:20 AM32 °FScattered clouds.10 mph80%29.98 "HgN/A
9:20 AM32 °FPartly sunny.13 mph80%29.95 "HgN/A
8:50 AM32 °FPassing clouds.10 mph80%29.95 "HgN/A
8:20 AM32 °FPartly cloudy.12 mph80%29.92 "HgN/A
8:01 AM32 °FPassing clouds.10 mph80%29.89 "HgN/A
7:20 AM32 °FPassing clouds.12 mph80%29.89 "HgN/A
6:50 AM32 °FPassing clouds.9 mph80%29.86 "HgN/A
6:20 AM32 °FPassing clouds.12 mph80%29.83 "HgN/A
5:50 AM34 °FPassing clouds.12 mph75%29.83 "HgN/A
5:20 AM34 °FPassing clouds.12 mph81%29.80 "HgN/A
4:50 AM34 °FPassing clouds.9 mph81%29.80 "HgN/A
4:20 AM34 °FPassing clouds.10 mph81%29.80 "HgN/A
3:50 AM34 °FPassing clouds.10 mph81%29.77 "HgN/A
3:20 AM34 °FPassing clouds.10 mph81%29.77 "HgN/A
2:50 AM32 °FPassing clouds.10 mph87%29.77 "HgN/A
2:20 AM34 °FPassing clouds.9 mph81%29.74 "HgN/A
1:50 AM34 °FPartly cloudy.10 mph81%29.74 "HgN/A
1:20 AM34 °FPassing clouds.9 mph87%29.74 "HgN/A
12:50 AM34 °FPassing clouds.8 mph87%29.74 "HgN/A
12:20 AM34 °FPassing clouds.8 mph87%29.74 "HgN/A
11:50 PM
Dec 24
34 °FPassing clouds.7 mph87%29.74 "HgN/A
11:20 PM34 °FPassing clouds.9 mph87%29.71 "HgN/A
10:50 PM34 °FPassing clouds.7 mph93%29.71 "HgN/A
10:20 PM34 °FPartly cloudy.5 mph93%29.71 "HgN/A
9:50 PM36 °FPassing clouds.5 mph87%29.68 "HgN/A
9:20 PM36 °FPassing clouds.5 mph93%29.68 "HgN/A
8:50 PM36 °FPartly cloudy.7 mph93%29.65 "HgN/A
8:20 PM37 °FPartly cloudy.8 mph87%29.65 "HgN/A
7:50 PM37 °FPartly cloudy.10 mph93%29.62 "HgN/A
7:20 PM37 °FPartly cloudy.6 mph100%29.59 "HgN/A
6:50 PM37 °FPassing clouds.3 mph100%29.59 "HgN/A
6:20 PM39 °FPassing clouds.3 mph93%29.56 "HgN/A
5:50 PM39 °FSprinkles. Passing clouds.7 mph93%29.56 "HgN/A
5:20 PM39 °FSprinkles. Passing clouds.10 mph93%29.53 "HgN/A
4:50 PM39 °FSprinkles. Partly cloudy.12 mph93%29.53 "Hg3 mi
4:20 PM39 °FSprinkles. Partly cloudy.13 mph100%29.53 "Hg5 mi
3:20 PM39 °FScattered clouds.10 mph93%29.50 "HgN/A
2:50 PM39 °FScattered clouds.10 mph93%29.50 "HgN/A
2:20 PM39 °FScattered clouds.9 mph93%29.50 "HgN/A
1:50 PM39 °FPartly sunny.14 mph93%29.47 "HgN/A
1:20 PM41 °FPartly sunny.10 mph87%29.47 "HgN/A
Weather by CustomWeather, © 2014

See weather overviewHow to use our weather pages